TimeCST,TemperatureF,Dew PointF,Humidity,Sea Level PressureIn,VisibilityMPH,Wind Direction,Wind SpeedMPH,Gust SpeedMPH,PrecipitationIn,Events,Conditions,WindDirDegrees,DateUTC
12:56 AM,30.0,27.0,88,29.92,10.0,West,4.6,-,N/A,,Clear,260,2012-12-02 06:56:00
1:56 AM,27.0,25.0,92,29.93,9.0,West,3.5,-,N/A,,Clear,280,2012-12-02 07:56:00
2:56 AM,27.0,24.1,89,29.94,10.0,Calm,Calm,-,N/A,,Clear,0,2012-12-02 08:56:00
3:56 AM,28.0,25.0,88,29.96,10.0,SW,6.9,-,N/A,,Clear,230,2012-12-02 09:56:00
4:56 AM,28.9,26.1,89,29.97,10.0,Calm,Calm,-,N/A,,Clear,0,2012-12-02 10:56:00
5:56 AM,26.1,23.0,88,29.98,10.0,Calm,Calm,-,N/A,,Clear,0,2012-12-02 11:56:00
6:56 AM,25.0,21.9,88,30.00,10.0,SE,5.8,-,N/A,,Clear,130,2012-12-02 12:56:00
7:56 AM,25.0,21.0,85,30.01,10.0,Calm,Calm,-,N/A,,Clear,0,2012-12-02 13:56:00
8:56 AM,35.1,30.9,85,30.02,10.0,Calm,Calm,-,N/A,,Clear,0,2012-12-02 14:56:00
10:56 AM,51.1,36.0,56,29.97,10.0,SSE,9.2,-,N/A,,Clear,160,2012-12-02 16:56:00
12:56 PM,61.0,36.0,39,29.90,10.0,SSE,13.8,-,N/A,,Clear,150,2012-12-02 18:56:00
1:56 PM,63.0,36.0,37,29.85,10.0,SSE,16.1,-,N/A,,Clear,160,2012-12-02 19:56:00
2:56 PM,63.0,37.0,38,29.82,10.0,SSE,13.8,-,N/A,,Clear,160,2012-12-02 20:56:00
3:56 PM,61.0,39.0,44,29.82,10.0,SE,6.9,-,N/A,,Clear,130,2012-12-02 21:56:00
4:56 PM,55.9,37.9,51,29.82,10.0,ESE,10.4,-,N/A,,Clear,120,2012-12-02 22:56:00
6:56 PM,55.0,37.9,53,29.79,10.0,SSE,13.8,-,N/A,,Clear,160,2012-12-03 00:56:00
7:56 PM,55.0,39.0,55,29.77,10.0,South,17.3,-,N/A,,Clear,170,2012-12-03 01:56:00
8:56 PM,54.0,37.9,55,29.75,10.0,South,18.4,24.2,N/A,,Clear,170,2012-12-03 02:56:00
9:56 PM,53.1,39.0,59,29.73,10.0,South,16.1,-,N/A,,Clear,180,2012-12-03 03:56:00
10:56 PM,48.9,39.0,69,29.72,10.0,SSE,13.8,-,N/A,,Clear,160,2012-12-03 04:56:00
11:56 PM,48.0,39.0,71,29.68,10.0,SSE,11.5,-,N/A,,Clear,160,2012-12-03 05:56:00